Regional Weather Roundup
Issued by NWS Bismarck, ND

Home | Current Version | Previous Version | Text Only | Print | Product List | Glossary On
Versions: 1 2 3 4 5 6 7 8 9 10 11 12 13 14 15 16 17 18 19 20 21 22 23 24 25 26 27 28 29 30 31 32 33 34 35 36 37 38 39 40 41 42 43 44 45 46 47 48 49 50
000
ASUS43 KBIS 280810
RWRBIS

NWR BROADCAST TEXT
NATIONAL WEATHER SERVICE BISMARCK ND
200 AM CST TUE FEB 28 2017

NOTE: "FAIR" INDICATES FEW OR NO CLOUDS BELOW 12,000 FEET WITH NO
SIGNIFICANT WEATHER AND/OR OBSTRUCTIONS TO VISIBILITY.


CITY           SKY/WX    TMP DP  RH WIND       PRES   REMARKS
WILLISTON      CLOUDY     7   4  87 NE3       29.85S
MINOT          CLOUDY     4   0  83 W3        29.89R
MINOT AFB      CLOUDY     4   0  84 CALM      29.89R
BISMARCK       CLOUDY    19  16  88 NE8       29.86S WCI   9
DICKINSON      CLOUDY    13  10  88 E5        29.75F WCI   5
GARRISON         N/A      4   1  88 N5        29.87R WCI  -5
HETTINGER ARPT CLOUDY    19  16  88 E9        29.75F WCI   8
JAMESTOWN      FAIR      16  13  88 NE9       29.84F WCI   4
CARRINGTON     CLOUDY    14  10  85 NE10      29.90S WCI   1
HAZEN          HVY SNOW N/A N/A N/A NE7       29.88S
MANDAN         CLOUDY    18  16  93 MISG      29.85S
RUGBY            N/A     -2  -6  84 NE7       29.92R WCI -16
STANLEY        PTSUNNY   -4  -8  84 CALM      29.86S
TIOGA          FAIR      -2  -4  92 E5        29.85S WCI -12
WATFORD CITY   FLURRIES   0  -2  92 N5        29.84S WCI -10
$$

CITY           SKY/WX    TMP DP  RH WIND       PRES   REMARKS
GRAND FORKS    CLOUDY    16   8  71 N14       29.93S WCI   2
GRAND FORKS AF FLURRIES  14   9  79 N14       29.92F WCI  -1
DEVILS LAKE    FLURRIES  10   6  84 NE7       29.91R WCI  -1
FARGO          CLOUDY    22  19  89 N16       29.87R WCI   8
CAVALIER         N/A      7   3  85 N7        29.97F WCI  -5
GRAFTON        PTSUNNY   10   5  79 N12       29.97F WCI  -4
GWINNER        FAIR      25  21  86 N14       29.83S WCI  13
ROLLA          CLOUDY     1  -2  85 N6        29.91R WCI -10
$$

CITY           SKY/WX    TMP DP  RH WIND       PRES   REMARKS
ABERDEEN       LGT SNOW  25  20  81 NE15      29.80F WCI  13
MOBRIDGE       CLOUDY    27  22  81 NE10      29.78R WCI  17
BUFFALO          N/A     19  17  92 E13       29.62F WCI   6
RAPID CITY     FAIR      23  20  88 N8        29.67S WCI  14
GLASGOW        FAIR      11   8  88 E10       29.73F WCI  -3
SIDNEY         CLOUDY    12   8  84 NE8       29.82S WCI   0
WOLF POINT     FAIR       4   0  83 E6        29.80F WCI  -7
GLENDIVE       CLOUDY    18  15  88 E6        29.75S WCI  10
MILES CITY     MOCLDY    20  16  84 NE7       29.72S WCI  11
BAKER          CLOUDY    19  16  88 SE15      29.72R WCI   5
$$

CITY           SKY/WX    TMP DP  RH WIND       PRES   REMARKS
BILLINGS       FAIR      21  19  92 SW8       29.66F WCI  11
GREAT FALLS    MOCLDY    24  16  71 SW14      29.56F WCI  12
REGINA         CLEAR      1  -2  85 SE9       29.83S WCI -14
ESTEVAN        CLEAR      0  -4  85 SE7       29.87R WCI -13
$$




USA.gov is the U.S. government's official web portal to all federal, state and local government web resources and services.